RH
34 41 42 46 46 55 64 69 72 76 83 81 75 73 72 74 78 76 77 82 89 77 84 86 84 80 77 75 77 84 88 90 83
34 39 43 44 47 53 60 65 71 74 76 71 72 73 81 79 77 84 90 89 78 76 85 78 78 75 76 78 84 83 86 91 89
33 36 44 44 46 50 58 58 66 71 70 69 69 74 71 71 76 82 83 83 80 85 80 80 77 77 79 79 81 83 84 87 84
35 38 39 45 46 46 58 56 64 71 71 72 68 73 75 79 82 79 81 83 80 80 81 84 87 87 86 83 82 85 89 89 86
38 33 37 40 42 44 57 58 67 71 72 72 73 72 88 81 85 84 84 84 80 82 85 83 78 81 83 84 85 88 89 88 84
34 39 38 38 37 42 52 57 66 71 71 72 77 82 88 83 76 78 84 84 80 82 80 78 78 75 75 80 81 84 85 88 88
40 46 38 40 40 39 49 55 62 69 72 74 85 87 84 82 66 70 78 82 81 81 81 80 80 78 80 83 80 80 83 87 92
36 38 53 41 42 45 52 56 60 70 71 82 81 81 82 76 66 71 75 81 80 81 83 81 81 83 83 82 80 72 85 89 88
34 41 54 49 43 48 53 54 61 68 70 76 82 83 80 83 76 79 76 75 81 87 86 82 84 84 83 77 71 77 83 74 79
29 31 37 59 60 63 53 54 58 65 68 82 84 86 86 87 83 86 74 73 83 84 83 85 84 83 79 78 80 82 81 85 83
28 26 28 39 56 64 56 54 60 69 82 82 83 88 83 77 76 78 73 79 81 79 89 92 84 82 86 83 80 87 88 89 80
28 28 32 37 44 63 70 57 62 68 81 82 84 85 84 76 72 72 76 81 88 80 92 91 93 88 87 95 91 90 90 90 90
33 38 39 41 47 80 81 69 66 66 78 83 88 84 77 70 71 70 76 80 86 75 92 96 97 94 96 93 94 91 91 93 95
39 41 42 46 71 74 76 67 68 80 82 82 84 81 76 70 70 67 67 73 89 94 97 98 96 94 92 95 95 93 94 95 91
30 35 42 50 68 83 74 62 68 85 83 92 91 90 89 89 86 91 76 92 97 97 97 96 94 93 96 98 94 94 96 96 99
38 36 40 53 73 96 92 84 90 94 96 94 93 91 96 90 87 93 94 97 98 98 95 97 96 98 96 97 99 96 90 88 88
71 85 72 92 91 94 97 93 91 93 95 93 91 93 94 93 92 94 92 96 97 97 97 97 97 96 97 99 97 95 96 94 96
89 90 90 88 90 92 94 91 92 91 90 89 91 90 91 92 90 95 99 100 99 98 98 97 96 96 97 99 96 92 98 98 95
89 91 90 94 96 94 92 92 94 95 92 90 90 90 82 94 96 99 99 100 100 99 99 98 97 99 87 89 89 91 89 91 94
90 88 85 90 94 95 96 96 94 94 94 89 86 93 92 93 97 99 98 98 98 99 99 99 98 92 90 86 86 91 91 94 93
Wind_Speed
22 20 21 23 22 18 20 20 18 16 14 12 11 9 9 7 8 5 4 5 3 3 3 4 4 5 5 4 3 3 4 2 2
20 21 21 22 20 18 19 20 21 20 18 16 15 11 8 8 8 7 6 6 5 4 4 4 6 6 5 4 3 2 1 2 3
18 18 19 19 19 20 20 19 20 19 19 19 17 14 11 9 8 8 7 6 7 6 5 4 5 5 5 4 4 4 2 2 4
13 17 20 20 20 19 20 19 19 18 18 17 15 13 11 9 8 8 8 7 7 6 5 5 4 5 5 6 5 5 4 5 6
12 18 19 20 21 20 19 20 18 19 17 16 15 13 11 10 8 8 8 7 8 7 7 5 6 6 6 6 6 6 5 6 5
9 14 15 19 17 18 19 20 18 18 17 17 13 11 11 7 9 9 9 8 7 7 7 7 6 6 6 7 7 6 6 7 7
10 11 18 19 18 19 19 20 20 19 17 16 14 13 13 11 11 10 9 8 8 8 7 7 7 7 7 7 7 6 7 6 6
10 9 10 16 18 18 18 17 16 15 14 14 16 15 14 14 12 9 9 8 8 8 7 7 7 7 7 7 5 5 7 5 5
9 7 9 10 15 17 19 20 18 18 18 18 15 15 14 10 9 8 10 10 10 8 8 7 6 7 7 7 4 6 9 7 5
10 9 6 9 9 10 14 17 17 17 17 15 17 15 12 11 11 10 12 12 8 9 9 6 7 7 7 7 6 8 10 8 5
10 10 9 8 7 10 16 17 14 10 11 16 16 13 13 14 14 14 12 10 10 9 5 7 8 6 6 6 6 10 9 8 6
9 8 6 4 5 7 10 15 14 16 16 16 15 15 15 14 14 13 10 10 9 9 5 5 3 1 5 5 9 8 7 6 4
7 8 7 7 7 4 7 9 13 17 17 15 15 15 17 13 12 11 12 12 11 10 4 5 6 6 5 8 7 8 8 7 1
7 8 9 7 6 9 10 11 14 15 15 16 14 13 11 8 8 14 15 13 7 6 5 6 5 3 6 5 8 7 10 3 1
6 3 4 6 8 7 9 14 15 13 10 7 10 10 11 12 11 12 12 9 6 8 6 5 4 5 4 5 4 1 3 5 5
6 11 5 5 2 9 7 8 12 12 3 11 12 12 8 10 16 12 20 5 6 6 5 4 4 4 2 2 3 3 6 6 5
6 5 5 5 10 12 12 14 13 14 9 11 10 6 7 8 10 8 14 4 5 6 4 3 3 3 3 3 2 1 3 2 3
4 4 5 3 9 12 12 11 12 12 11 10 8 8 9 9 6 11 7 2 3 3 1 2 4 3 4 5 3 2 2 2 3
3 5 7 9 10 12 13 8 7 7 6 7 7 5 4 6 5 5 5 5 3 10 8 6 7 8 6 3 5 2 5 9 9
6 7 8 11 12 10 7 8 8 5 5 6 9 9 5 5 8 7 7 5 5 5 5 10 11 9 9 7 7 2 7 7 3
Wind_Direction
195 183 184 183 183 178 177 179 183 184 180 177 176 176 178 176 165 181 170 169 167 169 182 182 182 192 190 214 266 299 284 255 254
192 188 184 185 185 183 184 184 186 185 181 179 181 178 164 172 169 165 168 171 168 181 195 187 182 191 195 215 246 271 316 224 232
188 188 185 186 188 189 192 192 189 187 185 182 181 175 171 179 172 162 169 167 181 180 204 224 205 208 214 227 231 251 252 240 243
168 182 187 187 194 194 196 194 190 189 187 182 183 177 171 176 180 178 166 179 189 193 206 224 223 230 233 238 245 255 257 259 253
184 186 189 192 193 192 192 195 190 191 187 188 186 175 179 189 174 178 175 186 193 194 207 208 212 221 228 240 241 233 226 245 253
194 178 188 197 191 193 193 195 193 190 189 190 177 170 173 187 182 181 182 187 193 195 202 217 228 228 239 247 242 244 246 240 244
181 177 178 186 191 199 197 194 193 189 188 183 167 171 179 182 183 183 179 179 191 197 200 210 222 234 239 239 250 252 253 249 246
171 186 168 185 194 200 197 195 195 193 185 179 171 176 181 189 190 176 177 183 199 204 205 211 217 229 241 248 248 248 244 237 222
160 192 178 191 206 198 195 194 192 185 186 186 166 176 185 190 181 179 193 198 203 203 215 216 219 236 243 253 252 253 203 199 220
154 149 154 181 180 197 208 203 193 186 183 164 178 175 175 184 180 199 202 204 199 211 218 202 222 230 226 247 250 239 226 214 220
152 151 165 177 175 197 204 202 195 168 163 173 167 179 189 191 190 206 202 200 209 217 201 203 218 228 259 241 250 239 228 232 235
162 165 164 176 194 208 206 200 179 168 169 172 170 177 197 192 196 196 193 206 208 214 193 188 112 106 293 307 278 258 243 211 247
144 158 149 171 211 200 159 179 168 166 172 168 171 181 197 191 194 197 201 207 205 212 169 163 157 207 236 268 262 266 230 218 203
149 167 181 191 185 187 179 161 159 169 170 181 173 182 197 209 197 206 206 203 181 160 118 109 107 223 239 244 224 227 234 217 152
350 353 275 228 186 194 165 165 160 166 160 90 79 70 71 60 15 348 278 161 130 129 126 123 199 221 232 220 151 231 168 153 191
337 305 279 249 250 96 79 96 113 105 113 106 116 110 120 123 50 3 326 329 123 117 129 165 222 228 227 170 78 70 59 68 57
261 306 321 139 121 117 113 119 121 130 128 114 109 100 79 76 119 172 259 235 148 151 194 174 189 181 135 130 138 74 16 359 344
33 12 350 37 108 112 106 109 111 116 127 129 142 162 181 165 199 193 182 46 38 94 343 200 151 144 149 151 176 232 219 287 315
194 117 82 64 85 104 112 116 117 106 137 137 145 193 142 129 197 169 175 139 122 55 72 73 89 115 120 64 111 145 281 271 256
186 156 134 129 135 138 148 142 140 183 231 212 193 197 204 146 154 162 163 160 163 140 38 44 50 90 120 116 136 30 350 9 121